Showing default

COSMOS 1109, 11417

Orbit data source: Space-Track

COSMOS 1109, 11417 is a payload satellite owned by PVO (CIS) in HEO that was launched on Wed, 27 Jun 1979 UTC via an MOLNIYA 8K78M launch vehicle from the Plesetsk Missile And Space Complex (PKMTR). Payload-class satellites include a variety of spacecraft equipped with specific instruments for various scientific and technological missions. These include communications satellites like Starlink; space stations such as the ISS; scientific satellites like the Hubble; Earth observation satellites from companies like Planet Labs, Umbra, and HawkEye 360; GPS; miniature CubeSats for education and research; and military/defense satellites.

Loading next visibility...
Identifier
11417, 1979-058A
Orbit
HEO
Country
Flag of CISCIS
Related business
Manufacturer
NPOL/KOMET
Mission
Spacecraft
Bus & Motor
OKO, Unknown motor
Mass
~1,250 kg wet, ~1,150 kg dry
Launch date (UTC)
1979-06-27 (47 years ago)
Launch vehicle
MOLNIYA 8K78M
Launch site
Plesetsk Missile And Space Complex (PKMTR)
Object type
Payload
Rocket body
Debris
Shape & HBR
Unknown
Radar Cross Section
Large (>1 m²)

Expand to show TLE details & history
Last TLE update: 3 days ago

TLE from 3 days ago
0 COSMOS 1109
1 11417U 79058A   26170.96313843  .00000328  00000-0  00000+0 0  9998
2 11417  70.6654 191.0196 6007502 196.1127 130.3608  2.01359665233891
Epoch: 2026-06-19T23:06Z
TLE epoch observation values (Epoch: 2026-06-19T23:06:55.160Z)
Latitude
0.00005°
Longitude
-63.90885°
Altitude
33,666.178 km
Speed
2.205 km/s
True Right ascension
12h 44m 01s
True Declination
0° 00' 00"
Sunlit
Object was in daylight at epoch
Visualization orbit readout
Latitude
Unknown
Longitude
Unknown
Altitude
Unknown
Speed
Unknown
Apparent Right ascension
Unknown
Apparent Declination
Unknown
Sunlit
N/A
Visualization observer readout
Local Sidereal Time
00:39:27
Azimuth
Unknown
Elevation
Unknown
Doppler factor
Unknown
Orbital elements
Apogee altitude
36,024.492 km
Perigee altitude
4,197.68 km
Semi-major axis
26,489.223 km
Eccentricity
0.60075
Inclination
70.6654°
RAAN
191.0196°
Arg. of periapsis
196.1127°
True anomaly
163.91129°
Mean anomaly
130.3608°
Eccentric anomaly
148.39777°
Mean motion
0.50343 °/min
Orbital period
715.09 mins
BSTAR
0
Loading maneuver chart data...
Computing Atmospheric mass density...

Documentation

Showing up to 5 results
|